RH
20 18 17 15 14 14 13 13 13 13 14 16 17 17 18 18 18 18 22 23 23 23 22 21 20 19 18 17 16 15 14 12 12 12 11 11 11 12 12 12 11 11 11
19 18 18 17 17 17 17 17 18 18 18 20 23 25 29 31 34 37 38 38 37 35 34 33 32 31 31 30 29 29 27 26 24 21 18 16 14 12 11 11 11 11 11
19 18 19 21 22 23 23 24 25 27 30 32 35 36 38 39 41 42 43 44 43 42 40 37 35 32 31 30 30 29 30 29 27 24 24 24 23 20 19 18 16 14 12
20 20 23 25 27 27 28 32 38 40 41 41 41 40 40 40 43 43 42 41 39 37 35 32 30 28 27 26 25 24 24 25 26 24 25 24 24 24 23 20 20 18 17
22 24 30 32 31 31 32 34 40 44 46 45 44 42 42 41 42 42 41 40 37 35 33 30 28 27 27 26 24 24 24 24 24 24 24 23 23 20 20 25 21 19 22
31 34 36 36 36 36 38 39 41 44 46 46 45 43 41 40 38 36 34 32 30 29 29 28 28 28 27 26 25 25 24 24 24 24 23 23 22 20 18 19 23 24 20
40 42 39 37 37 38 39 42 43 43 43 43 41 40 38 35 32 30 29 28 28 28 29 29 29 29 28 27 26 25 25 25 24 24 24 24 23 23 22 19 20 21 26
51 47 43 40 38 39 39 39 39 40 39 38 37 36 36 36 37 36 35 35 35 35 34 34 33 32 32 30 30 28 27 26 25 25 25 24 24 24 23 22 20 20 21
60 57 57 54 50 47 46 48 47 45 45 46 47 47 47 47 48 48 47 45 43 42 41 40 40 40 39 39 38 38 37 36 34 33 32 31 31 30 29 27 24 20 18
63 66 68 69 69 67 65 64 64 65 67 65 63 62 61 60 60 60 59 58 57 56 54 53 52 51 51 52 52 52 52 52 50 49 48 47 46 44 42 39 37 32 25
76 75 76 79 82 83 83 82 79 77 76 78 79 79 77 75 74 73 72 71 71 70 68 67 66 65 64 63 60 58 56 55 52 49 46 44 42 41 40 39 38 38 36
100 99 94 91 89 89 90 91 92 93 92 92 92 92 92 91 89 88 87 84 82 78 75 71 68 64 60 56 54 52 49 46 44 41 38 37 35 34 33 32 32 32 30
100 100 98 97 98 99 100 100 100 100 100 100 100 99 96 90 84 78 73 67 62 58 54 51 51 50 49 48 48 48 48 47 47 47 48 46 44 43 39 37 33 30 28
99 97 97 98 99 100 100 100 100 99 98 96 90 82 74 68 64 59 56 54 53 52 51 49 48 48 47 46 44 43 42 42 40 37 35 33 31 30 30 32 35 34 33
100 100 100 100 100 100 98 97 96 91 84 81 76 72 66 62 59 58 57 55 54 50 46 44 43 41 40 38 36 34 33 32 31 30 30 30 30 30 29 28 27 25 23
97 98 100 99 97 97 97 95 89 79 68 70 74 61 48 40 46 51 51 48 43 40 37 35 33 31 29 28 26 25 23 22 21 20 19 19 19 19 19 20 21 22 25
100 100 99 98 91 81 78 72 57 32 31 47 60 59 51 45 41 38 36 34 32 29 27 25 23 22 20 19 18 17 16 15 14 13 12 12 11 11 10 10 10 11 12
100 100 95 67 41 20 25 43 62 72 64 55 49 45 43 42 38 33 29 26 23 21 20 18 16 15 13 12 11 10 9 8 7 7 6 6 6 5 5 5 5 5 6
75 69 64 44 36 52 70 64 59 54 47 46 46 42 37 33 29 25 22 18 16 13 11 10 8 7 6 5 4 4 4 3 3 2 2 2 2 2 2 2 2 2 2
44 43 54 60 51 50 48 45 48 49 45 39 37 31 25 21 16 12 10 8 7 6 5 4 3 3 2 2 2 2 2 2 2 2 2 3 3 3 3 3 3 3 2
38 42 46 47 51 58 57 47 42 38 33 26 19 14 11 9 7 5 4 3 3 2 2 3 3 3 4 4 4 4 3 3 3 3 3 4 4 4 4 4 4 4 4
51 67 68 59 54 47 43 33 23 19 15 12 9 6 4 3 3 4 5 6 6 6 6 6 6 6 5 5 5 5 5 6 6 6 6 6 6 6 6 6 6 5 5
62 55 50 44 35 26 20 16 13 10 7 4 3 5 7 8 8 8 8 8 8 7 7 6 5 5 6 7 8 8 8 7 7 7 7 7 7 8 8 8 9 10 11
52 40 31 24 19 15 11 7 4 4 6 7 9 9 10 10 9 8 7 5 5 5 5 6 7 8 8 9 9 9 9 9 10 10 11 11 12 12 12 12 13 15 16
32 26 20 13 8 5 6 8 9 9 9 10 10 10 10 9 7 7 7 7 8 9 9 9 9 9 9 11 12 13 15 16 18 20 20 20 21 20 20 20 22 23 25
19 12 7 6 8 9 11 12 11 11 11 11 11 9 8 6 7 9 10 10 9 8 9 10 11 12 13 17 20 22 22 23 27 30 28 30 30 28 27 26 29 33 36
Wind_Speed
32 31 32 31 31 31 31 31 31 30 28 28 28 28 28 28 27 27 27 26 26 26 26 27 27 27 27 27 27 28 28 29 29 30 31 32 33 34 34 34 33 32 32
33 33 33 32 32 32 32 32 32 32 31 30 29 29 28 28 29 29 29 29 29 29 29 30 30 30 30 30 30 30 30 31 30 30 31 31 32 32 34 35 36 38 38
33 34 34 34 33 33 33 33 33 32 32 31 31 31 31 31 31 31 31 31 32 32 32 33 33 34 34 33 33 33 34 34 35 35 34 35 36 36 36 36 36 37 38
34 34 35 35 34 34 34 34 34 34 34 34 34 33 33 33 33 33 34 34 35 35 36 36 36 37 37 37 37 37 37 37 38 39 39 39 39 40 40 40 40 40 40
34 34 35 35 35 35 35 36 36 36 36 37 37 37 37 37 37 38 38 38 39 39 40 41 41 41 41 41 42 42 42 42 42 43 44 44 44 44 43 42 46 44 43
34 34 34 34 35 36 36 37 38 39 39 40 40 41 41 41 42 42 42 42 42 43 43 43 44 45 45 45 46 46 47 47 47 48 48 49 50 50 50 48 46 48 49
35 35 35 36 36 37 38 39 40 41 42 42 43 44 44 45 45 45 46 45 46 46 46 47 47 48 49 50 51 51 52 52 53 53 53 54 55 55 56 56 53 52 51
36 35 36 37 38 39 40 41 42 43 44 45 46 47 47 47 48 48 49 49 50 50 51 51 52 53 53 54 55 56 57 57 58 58 59 60 60 61 61 61 61 59 58
36 37 38 38 39 41 42 43 44 45 46 47 48 49 50 51 51 52 53 53 54 55 56 56 57 58 58 59 60 60 61 62 63 64 65 65 66 67 67 68 68 68 67
38 39 39 40 41 43 44 45 46 47 48 49 50 52 53 53 54 55 56 57 58 59 60 61 62 63 64 65 65 66 67 67 68 69 70 71 71 72 73 73 74 74 75
38 40 41 42 43 44 46 46 48 49 50 51 53 54 55 56 57 58 59 61 62 63 64 66 67 68 70 70 71 72 73 73 74 75 76 76 77 78 79 80 80 80 81
40 41 42 43 45 46 47 48 49 50 52 53 55 56 58 59 61 63 64 66 67 68 69 71 72 74 75 76 77 78 79 79 80 81 82 82 83 83 84 84 85 86 86
44 45 46 47 48 50 50 51 53 55 56 58 59 60 61 63 64 66 67 69 71 72 74 75 76 77 79 80 81 82 83 84 85 85 86 88 88 89 90 90 90 90 90
48 48 47 46 46 48 49 51 53 55 57 59 60 62 64 66 68 70 71 72 74 76 77 78 80 81 82 84 85 86 87 88 88 89 91 92 93 94 95 96 97 97 97
45 46 47 49 51 52 53 54 55 57 59 60 62 65 67 68 71 73 75 76 78 80 81 82 83 84 86 87 88 89 90 91 92 93 94 95 96 98 99 100 101 103 104
48 49 51 52 54 54 55 56 59 60 60 62 65 66 68 69 71 74 76 77 79 81 84 86 87 89 91 92 94 95 95 96 98 98 100 101 102 103 103 104 105 106 107
52 53 53 53 53 54 55 55 55 57 60 62 65 67 70 73 75 78 81 83 85 87 89 91 93 95 96 98 99 101 101 102 104 105 106 107 108 110 110 112 112 112 113
49 47 44 44 45 47 51 55 59 62 64 67 71 74 77 80 83 85 87 90 91 93 95 96 98 100 102 104 106 107 109 110 111 112 113 114 114 114 116 117 117 118 119
38 40 43 46 50 55 59 61 64 68 71 74 78 81 83 86 88 90 92 94 96 98 100 102 104 105 106 108 108 109 109 109 108 108 110 111 111 109 109 109 111 111 112
42 46 50 54 57 60 64 67 71 75 77 80 83 86 88 90 92 95 97 98 100 101 102 102 102 101 99 98 97 98 99 99 99 98 99 99 100 99 100 101 101 101 102
48 51 55 59 63 67 70 74 77 80 81 83 86 89 92 93 95 96 97 97 96 95 94 92 91 91 93 92 94 95 96 97 96 96 95 95 95 96 97 98 100 100 104
52 58 62 65 68 71 73 77 80 82 85 87 89 90 89 89 88 88 88 88 89 89 89 90 91 92 94 94 94 93 93 93 93 92 92 92 92 92 92 93 94 96 98
57 60 63 67 71 73 75 78 82 84 85 84 82 81 82 84 87 88 89 89 90 91 91 91 91 90 90 90 90 90 90 89 89 88 87 86 83 82 81 82 82 84 84
59 61 65 68 72 75 77 79 78 77 77 78 79 81 83 86 87 88 89 90 90 89 89 88 88 87 86 85 84 82 81 79 76 74 74 72 71 71 72 72 73 74 75
60 63 66 68 69 70 71 73 75 77 78 80 82 84 85 86 87 88 88 87 87 88 87 85 84 81 76 73 72 69 66 65 66 67 69 65 65 66 66 67 68 69 69
61 63 64 64 66 68 70 73 76 79 80 82 84 86 87 86 85 85 84 84 84 82 79 75 72 67 63 60 60 62 63 63 64 66 66 64 65 64 64 63 62 63 64
Wind_Direction
228 226 226 225 226 226 228 231 234 237 237 239 243 245 248 251 251 252 253 253 254 255 255 255 256 256 256 257 258 259 260 260 260 262 262 262 261 262 262 261 259 259 258
232 231 230 229 229 230 231 234 236 239 241 242 244 246 248 250 252 253 255 256 257 257 259 260 261 261 261 260 260 261 263 264 264 262 262 263 262 262 263 263 264 265 264
235 234 233 232 232 233 234 236 239 241 243 245 247 248 250 252 253 255 257 258 259 260 260 261 262 264 264 263 263 263 264 265 265 265 264 264 265 264 262 262 262 263 264
237 237 236 236 236 236 236 238 240 242 245 247 249 251 252 253 254 255 258 260 262 263 265 266 266 267 268 268 267 267 266 265 266 267 266 265 263 263 265 265 263 264 264
242 241 241 241 241 241 240 240 242 245 247 249 251 254 255 256 257 257 258 260 262 264 265 267 268 268 268 269 270 270 269 268 268 268 267 266 265 264 263 263 268 264 263
241 243 244 245 245 246 246 246 247 249 251 253 254 256 258 259 261 262 262 263 264 264 265 266 268 269 270 269 269 270 271 270 270 270 269 269 269 268 267 265 262 265 268
240 243 245 247 247 247 248 249 249 251 254 256 258 259 260 261 262 263 264 265 265 266 266 266 267 267 268 269 270 270 270 271 271 270 270 269 269 268 269 268 266 264 264
243 243 244 246 247 248 248 250 252 253 254 256 258 260 261 262 263 264 265 265 266 266 266 267 267 267 267 268 269 269 270 270 270 270 270 270 269 269 268 268 267 265 264
245 246 247 247 248 249 251 251 252 254 256 257 258 260 261 262 263 264 265 266 267 268 268 269 269 269 269 269 269 269 269 270 270 270 270 270 270 270 270 269 269 268 265
249 248 249 249 250 251 252 254 256 258 259 260 261 262 263 264 265 266 267 269 269 270 270 271 271 271 271 272 272 272 272 272 271 271 272 272 272 271 271 270 270 269 268
253 252 253 253 254 255 257 258 259 261 262 263 264 265 266 267 267 268 268 269 270 271 272 272 273 273 273 273 273 272 272 272 272 272 271 271 271 271 271 271 271 270 270
256 256 257 257 258 259 260 261 262 263 263 264 265 266 267 268 269 270 271 271 271 271 271 272 272 272 272 272 272 272 271 272 272 272 272 271 271 270 270 270 270 270 270
260 260 260 261 261 261 262 263 263 263 263 264 265 267 268 269 269 270 270 270 271 271 271 272 272 273 273 273 273 273 273 273 273 272 272 272 272 271 271 270 270 269 269
265 265 263 260 258 258 259 261 262 264 267 268 270 270 271 271 272 273 274 274 274 275 275 275 275 275 275 275 274 274 274 273 273 272 271 271 271 271 271 270 270 269 268
255 255 256 258 260 263 265 267 268 269 270 271 272 273 274 275 275 276 276 277 277 277 277 277 277 276 276 276 276 275 275 275 274 273 273 272 271 270 270 269 269 269 268
258 260 261 264 265 267 268 269 269 270 271 272 273 275 275 275 276 277 277 278 278 278 278 278 278 278 277 277 277 276 276 275 274 274 274 273 272 271 270 270 269 268 267
263 264 264 265 265 266 269 270 270 271 273 274 276 277 279 280 281 281 281 281 281 280 280 280 279 279 278 278 278 277 277 276 275 274 274 273 272 272 271 270 269 269 268
264 266 266 267 267 270 272 272 274 276 277 279 280 281 282 283 283 283 282 282 282 281 281 281 281 280 280 280 279 279 278 278 277 276 275 274 274 273 272 271 270 269 269
265 268 270 272 273 274 276 278 279 280 281 282 283 283 283 283 284 283 283 283 282 282 282 282 282 281 281 281 281 280 280 280 279 279 278 277 276 275 274 274 272 271 270
274 274 275 277 278 279 281 281 282 282 283 284 285 285 285 285 285 285 284 284 284 284 284 284 283 283 283 283 283 282 282 281 280 280 279 278 277 276 275 274 273 272 271
276 278 279 280 281 282 283 284 285 285 286 286 286 286 286 286 286 286 286 286 285 285 285 285 285 284 284 284 284 283 283 282 282 281 280 279 278 277 276 276 275 274 271
277 279 281 283 284 285 285 286 286 286 286 287 287 287 288 288 287 287 287 286 286 286 286 286 286 286 286 286 285 284 284 283 283 282 281 280 279 278 278 276 275 274 273
281 282 283 285 285 285 285 286 287 287 288 289 289 289 289 288 288 288 287 287 287 287 287 286 286 286 286 286 285 284 284 284 283 282 281 280 280 280 279 278 277 276 275
283 283 284 285 287 287 288 289 289 289 290 290 290 290 290 289 289 289 289 288 288 287 287 287 286 286 285 285 284 284 283 283 283 283 282 282 282 280 280 279 278 277 277
284 286 287 289 290 292 292 292 292 292 292 292 292 291 290 289 289 289 289 289 289 288 287 287 286 285 285 284 284 283 283 284 284 285 285 286 285 284 283 282 281 280 279
289 292 293 293 294 295 295 295 295 295 294 293 292 292 292 291 291 290 289 290 289 288 287 286 285 283 282 282 283 284 284 285 285 285 286 287 285 285 284 283 282 282 281